Lexington Weather

Lexington, Massachusetts, USA

74°F
9/22/2021 1:32pm 
  • Lexington Conditions: Overcast
  • Temperature: 74.3°F / 23.5°CColder 1.4°F than last hour.
  • Dew Point: 68.0°FDecreased 1.1°Fsince last hour.
  • Relative Humidity: 81%Increased 1.0% since last hour.
  • Wind: Wind from SW SW 6 mph, 10-min avg: 4 mph, gust: 15 mph
  • Barometer: 30.10 in Steady
  • Visibility: 10 miles
  • Rain Today: 0.00 in
  •   

Regional Weather Roundup
for Boston / Norton, MA

        
000
ASUS41 KBOX 181404
RWRBOX

REGIONAL WEATHER ROUNDUP
NATIONAL WEATHER SERVICE BOSTON/NORTON MA
1000 AM EDT SAT SEP 18 2021

NOTE:  "FAIR" INDICATES FEW OR NO CLOUDS BELOW 12,000 FEET WITH NO 
SIGNIFICANT WEATHER AND/OR OBSTRUCTIONS TO VISIBILITY.

MAZALL-181500-
EASTERN MASSACHUSETTS
  
CITY           SKY/WX    TMP DP  RH WIND       PRES   REMARKS
BOSTON         CLOUDY    69  64  84 N9        30.08S FOG              
BEVERLY        CLOUDY    67  66  97 N3        30.07F                  
LAWRENCE       CLOUDY    68  64  87 CALM      30.09F                  
BEDFORD        CLOUDY    67  65  93 N3        30.08F FOG              
BLUE HILL      NOT AVBL                                               
NORWOOD        CLOUDY    67  64  90 N6        30.08F FOG              
MARSHFIELD     FOG       64  64 100 VRB7      30.07F VSB 1/4          
PLYMOUTH       FOG       65  65 100 N12       30.07S VSB 1            
TAUNTON        CLOUDY    66  64  93 CALM      30.07R FOG              
NEW BEDFORD    CLOUDY    67  66  97 VRB6      30.06R FOG              
$$

MAZALL-181500-
CAPE COD AND THE ISLANDS
  
CITY           SKY/WX    TMP DP  RH WIND       PRES   REMARKS
FALMOUTH       FOG       66  66 100 NE10      30.05F VSB 1            
HYANNIS        CLOUDY    69  68  96 N7        30.03F                  
CHATHAM        PTSUNNY   71  66  84 NE8       30.04F                  
PROVINCETOWN   CLOUDY    66  66 100 NE7       30.06F                  
NANTUCKET      CLOUDY    73  67  81 NE15      30.01F                  
MARTHAS VNYRD  CLOUDY    69  69 100 N12       30.03F                  
$$
 
MAZALL-181500-
CENTRAL AND WESTERN MASSACHUSETTS
  
CITY           SKY/WX    TMP DP  RH WIND       PRES   REMARKS
WORCESTER      CLOUDY    65  64  97 NE3       30.11S FOG              
FITCHBURG      CLOUDY    65  62  90 NW3       30.10F                  
ORANGE         CLOUDY    66  63  90 CALM      30.12R                  
SPRINGFIELD    PTSUNNY   68  64  85 N6        30.09S                  
WESTFIELD      PTSUNNY   70  66  87 NE3       30.09F                  
NORTH ADAMS    CLOUDY    70  65  84 CALM      30.10F                  
PITTSFIELD     CLOUDY    69  64  84 CALM      30.11S                  
$$
 
RIZALL-181500-
RHODE ISLAND
  
CITY           SKY/WX    TMP DP  RH WIND       PRES   REMARKS
PROVIDENCE     CLOUDY    69  65  86 N12       30.07F                  
NEWPORT        CLOUDY    65  65 100 N10       30.06R                  
BLOCK ISLAND   CLOUDY    67  64  90 NE7       30.07R                  
SMITHFIELD     CLOUDY    65  65 100 N9        30.09S FOG              
WESTERLY       PTSUNNY   67  65  93 N9        30.06S                  
$$
 
CTZALL-181500-
CONNECTICUT
  
CITY           SKY/WX    TMP DP  RH WIND       PRES   REMARKS
BRADLEY INTL   PTSUNNY   69  64  84 NE5       30.08F                  
HARTFORD       CLOUDY    70  63  78 NE6       30.08F                  
BRIDGEPORT     PTSUNNY   74  66  76 VRB6      30.07F                  
DANBURY        CLOUDY    72  65  78 NE3       30.10F                  
GROTON         PTSUNNY   70  65  84 N9        30.05S                  
NEW HAVEN      MOSUNNY   74  66  76 N13       30.07F                  
CHESTER        CLOUDY   N/A N/A N/A VRB5G13   30.08F                  
MERIDEN        CLOUDY    70  63  78 NE6       30.08F                  
WILLIMANTIC    CLOUDY    68  64  87 N7        30.09F                  
OXFORD         PTSUNNY   69  65  86 N7        30.10F                  
$$

MEZ002-015-021-024-NHZ003-005-008-011-012-014-VTZ005-008-181500-
NORTHERN NEW ENGLAND
  
CITY           SKY/WX    TMP DP  RH WIND       PRES   REMARKS
PORTLAND ME    CLOUDY    65  65 100 SE6       30.07F FOG              
BANGOR ME      CLOUDY    67  65  93 S7        30.06F                  
CONCORD NH     CLOUDY    66  63  90 NW5       30.10R                  
MANCHESTER NH  FOG       66  62  87 W3        30.08S VSB 1            
NASHUA NH      CLOUDY    65  65 100 NW5       30.10F FOG              
PORTSMOUTH NH  FOG       65  65 100 E3        30.08F VSB 3/4          
JAFFREY NH     CLOUDY    64  64 100 CALM      30.12R                  
KEENE NH       CLOUDY    65  64  97 CALM      30.12R                  
BURLINGTON VT  CLOUDY    72  65  78 SW9       30.07S                  
MT. WASHINGTON NOT AVBL                                               
$$

NYZ052-076-181500-
EASTERN NEW YORK
  
CITY           SKY/WX    TMP DP  RH WIND       PRES   REMARKS
ALBANY         PTSUNNY   67  66  97 CALM      30.09S                  
NEW YORK CITY  PTSUNNY   76  65  68 N7        30.07F                  
$$
 
ANZALL-181500-
MARINE OBSERVATIONS
  
STATION/POSITION TIME  TEMP    WIND        PRES    VSBY  WAVE
                       AIR SEA DIR/SP/G                  HT/PER
                 (UTC) (F)     (DEG/KT/KT) (MB)    (MI)  (FT/S)
BOSTON BUOY      1340      67   30/ 14/ 17 1018.8F
BUZZARDS BAY     1300           20/ 17/ 18 1018.3R
NANTUCKET SOUND  1340   70 72   30/ 14/ 17 1016.7F
MASS BAY-STELLWA 1304   64      20/ 14/ 17 1018.1S  1 7/8  3/ 6
ISLE OF SHOALS   1300   63      30/  7/  7 1018.6F
S OF BLOCK IS    1326      70                N/A           7/ 9
$$

......................KEY.........................
  SKY/WX - SKY CONDITION/PRESENT WEATHER
  TMP    - TEMPERATURE IN FAHRENHEIT
  DWPT   - DEWPOINT IN FAHRENHEIT
  RH     - RELATIVE HUMIDITY IN PERCENT
  WIND   - DIRECTION AND SPEED IN MPH
  PRES   - MEAN SEA LEVEL PRESSURE IN INCHES OF HG
  WCI    - WIND CHILL INDEX
  VSB    - VISIBILITY IN MILES
  HX     - HEAT INDEX
  TC     - TEMPERATURE IN CELSIUS
  VRB    - VARIABLE WIND DIRECTION
  N/A    - NOT AVAILABLE
  
      

Other recent Regional Weather Roundups

Wed Sep 22, 1:04pm

Wed Sep 22, 12:05pm

Wed Sep 22, 11:04am

Wed Sep 22, 10:04am

Wed Sep 22, 9:04am

Wed Sep 22, 8:04am

Wed Sep 22, 7:04am

Wed Sep 22, 6:04am

Wed Sep 22, 5:04am

Wed Sep 22, 4:04am

Wed Sep 22, 3:04am

Wed Sep 22, 2:04am

Wed Sep 22, 1:04am

Wed Sep 22, 12:04am

Tue Sep 21, 11:04pm

Tue Sep 21, 10:04pm

Tue Sep 21, 9:04pm

Tue Sep 21, 8:04pm

Tue Sep 21, 7:04pm

Tue Sep 21, 6:04pm

Tue Sep 21, 5:04pm

Tue Sep 21, 4:04pm

Tue Sep 21, 3:04pm

Tue Sep 21, 2:04pm

Tue Sep 21, 1:04pm

Tue Sep 21, 12:04pm

Tue Sep 21, 11:04am

Tue Sep 21, 10:04am

Tue Sep 21, 9:04am

Tue Sep 21, 8:04am

Tue Sep 21, 7:04am

Tue Sep 21, 6:04am

Tue Sep 21, 5:04am

Tue Sep 21, 4:04am

Tue Sep 21, 3:04am

Tue Sep 21, 2:04am

Tue Sep 21, 1:04am

Tue Sep 21, 12:04am

Mon Sep 20, 11:04pm

Mon Sep 20, 10:04pm

Mon Sep 20, 9:04pm

Mon Sep 20, 8:04pm

Mon Sep 20, 7:04pm

Mon Sep 20, 6:04pm

Mon Sep 20, 5:04pm

Mon Sep 20, 4:04pm

Mon Sep 20, 3:04pm

Mon Sep 20, 2:04pm

Mon Sep 20, 1:04pm

Mon Sep 20, 12:04pm

Mon Sep 20, 11:04am

Mon Sep 20, 10:04am

Mon Sep 20, 9:04am

Mon Sep 20, 7:04am

Mon Sep 20, 6:04am

Mon Sep 20, 5:04am

Mon Sep 20, 4:04am

Mon Sep 20, 3:04am

Mon Sep 20, 2:04am

Mon Sep 20, 1:04am

Mon Sep 20, 12:04am

Sun Sep 19, 11:04pm

Sun Sep 19, 10:04pm

Sun Sep 19, 9:04pm

Sun Sep 19, 8:04pm

Sun Sep 19, 7:04pm

Sun Sep 19, 6:04pm

Sun Sep 19, 5:04pm

Sun Sep 19, 4:04pm

Sun Sep 19, 3:04pm

Sun Sep 19, 2:05pm

Sun Sep 19, 1:04pm

Sun Sep 19, 12:04pm

Sun Sep 19, 11:04am

Sun Sep 19, 10:05am

Sun Sep 19, 9:04am

Sun Sep 19, 8:04am

Sun Sep 19, 7:04am

Sun Sep 19, 6:04am

Sun Sep 19, 5:04am

Sun Sep 19, 4:04am

Sun Sep 19, 3:04am

Sun Sep 19, 2:04am

Sun Sep 19, 1:04am

Sun Sep 19, 12:04am

Sat Sep 18, 11:05pm

Sat Sep 18, 10:04pm

Sat Sep 18, 9:04pm

Sat Sep 18, 8:04pm

Sat Sep 18, 7:04pm

Sat Sep 18, 6:04pm

Sat Sep 18, 5:04pm

Sat Sep 18, 4:04pm

Sat Sep 18, 3:04pm

Sat Sep 18, 2:04pm

Sat Sep 18, 1:04pm

Sat Sep 18, 12:04pm

Sat Sep 18, 11:04am

Sat Sep 18, 9:04am

Sat Sep 18, 8:04am

Sat Sep 18, 7:04am

Sat Sep 18, 6:04am

Sat Sep 18, 5:04am

Sat Sep 18, 4:04am

Sat Sep 18, 3:04am

Sat Sep 18, 2:04am

Sat Sep 18, 1:04am

Sat Sep 18, 12:04am

Fri Sep 17, 11:04pm

Fri Sep 17, 10:04pm

Fri Sep 17, 9:04pm

Fri Sep 17, 8:04pm

Fri Sep 17, 7:04pm

Fri Sep 17, 6:04pm

Fri Sep 17, 5:04pm

Fri Sep 17, 4:04pm

Fri Sep 17, 3:04pm

Fri Sep 17, 2:04pm

Fri Sep 17, 1:04pm

Fri Sep 17, 12:05pm

Fri Sep 17, 11:04am

Fri Sep 17, 10:04am

Fri Sep 17, 9:04am

Fri Sep 17, 8:04am

Fri Sep 17, 7:04am

Fri Sep 17, 6:04am

Fri Sep 17, 5:04am

Fri Sep 17, 4:04am

Fri Sep 17, 3:04am

Fri Sep 17, 2:04am

Fri Sep 17, 1:04am

Fri Sep 17, 12:04am

Thu Sep 16, 11:04pm

Thu Sep 16, 10:04pm

Thu Sep 16, 9:04pm

Thu Sep 16, 8:04pm

Thu Sep 16, 7:04pm

Thu Sep 16, 6:04pm

Thu Sep 16, 5:04pm

Thu Sep 16, 4:04pm

Thu Sep 16, 3:04pm

Thu Sep 16, 2:04pm

Thu Sep 16, 1:05pm

Thu Sep 16, 12:04pm

Thu Sep 16, 11:05am

Thu Sep 16, 10:05am

Thu Sep 16, 9:04am

Thu Sep 16, 8:04am

Thu Sep 16, 7:04am

Thu Sep 16, 6:04am

Thu Sep 16, 5:04am

Thu Sep 16, 4:04am

Thu Sep 16, 3:04am

Thu Sep 16, 2:04am

Thu Sep 16, 1:04am

Thu Sep 16, 12:04am

Wed Sep 15, 11:04pm

Wed Sep 15, 10:04pm

Wed Sep 15, 9:04pm

Wed Sep 15, 8:04pm

Wed Sep 15, 7:04pm

Wed Sep 15, 6:04pm

Wed Sep 15, 5:05pm

Wed Sep 15, 4:04pm

Wed Sep 15, 3:04pm

Wed Sep 15, 2:04pm

Meta data:

ID: 443dfcb2-1172-4e7a-b568-c69dd5252e6e
Link: https://api.weather.gov/products/443dfcb2-1172-4e7a-b568-c69dd5252e6e